Time,TemperatureF,DewpointF,PressureIn,WindDirection,WindDirectionDegrees,WindSpeedMPH,WindSpeedGustMPH,Humidity,HourlyPrecipIn,Conditions,Clouds,dailyrainin,SoftwareType,DateUTC
2013-02-24 00:00:00,43.2,42.4,29.80,North,349,1.0,4.0,97,0.00,,,0.00,Wunderground v.1.15,2013-02-24 05:00:00,
2013-02-24 00:10:00,43.1,42.3,29.80,WNW,303,2.0,2.0,97,0.00,,,0.00,Wunderground v.1.15,2013-02-24 05:10:00,
2013-02-24 00:15:00,43.1,42.3,29.80,WNW,303,1.0,2.0,97,0.00,,,0.00,Wunderground v.1.15,2013-02-24 05:15:00,
2013-02-24 00:20:00,43.1,42.3,29.80,North,360,1.0,1.0,97,0.00,,,0.00,Wunderground v.1.15,2013-02-24 05:20:00,
2013-02-24 00:25:00,43.1,42.3,29.80,North,352,1.0,2.0,97,0.00,,,0.00,Wunderground v.1.15,2013-02-24 05:25:00,
2013-02-24 00:30:00,43.1,42.3,29.80,North,352,2.0,2.0,97,0.00,,,0.00,Wunderground v.1.15,2013-02-24 05:30:00,
2013-02-24 00:35:00,43.1,42.3,29.81,North,352,1.0,2.0,97,0.00,,,0.00,Wunderground v.1.15,2013-02-24 05:35:00,
2013-02-24 00:40:00,43.1,42.3,29.81,North,352,1.0,1.0,97,0.00,,,0.00,Wunderground v.1.15,2013-02-24 05:40:00,
2013-02-24 00:45:00,43.1,42.3,29.81,North,352,1.0,1.0,97,0.00,,,0.00,Wunderground v.1.15,2013-02-24 05:45:00,
2013-02-24 00:55:00,43.0,42.2,29.80,North,352,1.0,1.0,97,0.00,,,0.00,Wunderground v.1.15,2013-02-24 05:55:00,
2013-02-24 01:00:00,43.0,42.2,29.81,North,352,1.0,1.0,97,0.00,,,0.00,Wunderground v.1.15,2013-02-24 06:00:00,
2013-02-24 01:10:00,42.9,42.1,29.81,North,352,1.0,2.0,97,0.00,,,0.00,Wunderground v.1.15,2013-02-24 06:10:00,
2013-02-24 01:15:00,42.9,42.1,29.80,North,355,1.0,2.0,97,0.00,,,0.00,Wunderground v.1.15,2013-02-24 06:15:00,
2013-02-24 01:20:00,42.8,42.0,29.80,North,352,2.0,2.0,97,0.00,,,0.00,Wunderground v.1.15,2013-02-24 06:20:00,
2013-02-24 01:30:00,42.6,41.8,29.80,North,7,3.0,3.0,97,0.00,,,0.00,Wunderground v.1.15,2013-02-24 06:30:00,
2013-02-24 01:35:00,42.6,41.8,29.80,NNW,336,3.0,5.0,97,0.00,,,0.00,Wunderground v.1.15,2013-02-24 06:35:00,
2013-02-24 01:40:00,42.6,41.8,29.81,NW,320,3.0,5.0,97,0.00,,,0.00,Wunderground v.1.15,2013-02-24 06:40:00,
2013-02-24 01:45:00,42.6,41.8,29.81,NNW,332,4.0,5.0,97,0.00,,,0.01,Wunderground v.1.15,2013-02-24 06:45:00,
2013-02-24 01:50:00,42.5,41.7,29.80,NNW,331,4.0,5.0,97,0.00,,,0.01,Wunderground v.1.15,2013-02-24 06:50:00,
2013-02-24 02:00:00,42.4,41.6,29.81,NW,319,4.0,5.0,97,0.00,,,0.01,Wunderground v.1.15,2013-02-24 07:00:00,
2013-02-24 02:05:00,42.4,41.6,29.80,North,358,4.0,5.0,97,0.00,,,0.01,Wunderground v.1.15,2013-02-24 07:05:00,
2013-02-24 02:10:00,42.3,41.5,29.81,North,351,3.0,3.0,97,0.00,,,0.01,Wunderground v.1.15,2013-02-24 07:10:00,
2013-02-24 02:15:00,42.3,41.5,29.80,North,4,3.0,3.0,97,0.00,,,0.01,Wunderground v.1.15,2013-02-24 07:15:00,
2013-02-24 02:20:00,42.2,41.4,29.79,NNW,330,4.0,4.0,97,0.00,,,0.01,Wunderground v.1.15,2013-02-24 07:20:00,
2013-02-24 02:25:00,42.1,41.3,29.79,NNW,330,2.0,4.0,97,0.00,,,0.01,Wunderground v.1.15,2013-02-24 07:25:00,
2013-02-24 02:30:00,42.1,41.3,29.79,NW,324,2.0,2.0,97,0.00,,,0.01,Wunderground v.1.15,2013-02-24 07:30:00,
2013-02-24 02:35:00,42.0,41.2,29.79,NNW,335,2.0,2.0,97,0.00,,,0.01,Wunderground v.1.15,2013-02-24 07:35:00,
2013-02-24 02:40:00,42.0,41.2,29.79,North,353,2.0,2.0,97,0.00,,,0.01,Wunderground v.1.15,2013-02-24 07:40:00,
2013-02-24 02:50:00,41.9,41.1,29.79,NW,323,3.0,3.0,97,0.00,,,0.01,Wunderground v.1.15,2013-02-24 07:50:00,
2013-02-24 02:55:00,41.9,41.1,29.79,NNW,346,3.0,4.0,97,0.00,,,0.01,Wunderground v.1.15,2013-02-24 07:55:00,
2013-02-24 03:00:00,41.8,41.0,29.79,NNW,330,3.0,4.0,97,0.00,,,0.01,Wunderground v.1.15,2013-02-24 08:00:00,
2013-02-24 03:05:00,41.8,41.0,29.79,NW,311,2.0,4.0,97,0.00,,,0.01,Wunderground v.1.15,2013-02-24 08:05:00,
2013-02-24 03:10:00,41.8,41.0,29.78,NNW,343,2.0,2.0,97,0.00,,,0.01,Wunderground v.1.15,2013-02-24 08:10:00,
2013-02-24 03:15:00,41.8,41.0,29.78,North,353,2.0,2.0,97,0.00,,,0.01,Wunderground v.1.15,2013-02-24 08:15:00,
2013-02-24 03:20:00,41.8,41.0,29.78,NNW,334,3.0,3.0,97,0.00,,,0.01,Wunderground v.1.15,2013-02-24 08:20:00,
2013-02-24 03:25:00,41.7,40.9,29.78,NW,323,3.0,5.0,97,0.00,,,0.01,Wunderground v.1.15,2013-02-24 08:25:00,
2013-02-24 03:35:00,41.5,40.7,29.77,NNW,334,4.0,5.0,97,0.00,,,0.01,Wunderground v.1.15,2013-02-24 08:35:00,
2013-02-24 03:45:00,41.4,40.6,29.78,NNW,332,4.0,6.0,97,0.00,,,0.01,Wunderground v.1.15,2013-02-24 08:45:00,
2013-02-24 03:50:00,41.2,40.4,29.78,NNW,344,3.0,3.0,97,0.00,,,0.01,Wunderground v.1.15,2013-02-24 08:50:00,
2013-02-24 03:55:00,41.1,40.3,29.78,NW,311,3.0,3.0,97,0.00,,,0.01,Wunderground v.1.15,2013-02-24 08:55:00,
2013-02-24 04:00:00,40.9,40.1,29.78,NNW,340,3.0,3.0,97,0.00,,,0.01,Wunderground v.1.15,2013-02-24 09:00:00,
2013-02-24 04:05:00,40.9,40.1,29.78,NW,321,2.0,4.0,97,0.00,,,0.01,Wunderground v.1.15,2013-02-24 09:05:00,
2013-02-24 04:10:00,40.8,40.0,29.78,NNW,327,2.0,4.0,97,0.00,,,0.01,Wunderground v.1.15,2013-02-24 09:10:00,
2013-02-24 04:15:00,40.7,39.9,29.78,North,351,2.0,4.0,97,0.00,,,0.01,Wunderground v.1.15,2013-02-24 09:15:00,
2013-02-24 04:20:00,40.7,39.9,29.78,North,350,1.0,1.0,97,0.00,,,0.01,Wunderground v.1.15,2013-02-24 09:20:00,
2013-02-24 04:30:00,40.7,39.9,29.79,NNW,334,2.0,2.0,97,0.00,,,0.01,Wunderground v.1.15,2013-02-24 09:30:00,
2013-02-24 04:35:00,40.7,39.9,29.78,NW,323,2.0,2.0,97,0.00,,,0.01,Wunderground v.1.15,2013-02-24 09:35:00,
2013-02-24 04:40:00,40.7,39.9,29.78,WNW,289,1.0,2.0,97,0.00,,,0.01,Wunderground v.1.15,2013-02-24 09:40:00,
2013-02-24 04:45:00,40.7,39.9,29.78,NNW,341,2.0,2.0,97,0.00,,,0.01,Wunderground v.1.15,2013-02-24 09:45:00,
2013-02-24 04:55:00,40.6,39.8,29.79,NNW,342,1.0,2.0,97,0.00,,,0.01,Wunderground v.1.15,2013-02-24 09:55:00,
2013-02-24 05:00:00,40.6,39.8,29.79,NNW,343,1.0,1.0,97,0.00,,,0.01,Wunderground v.1.15,2013-02-24 10:00:00,
2013-02-24 05:05:00,40.6,39.8,29.80,NNW,343,1.0,1.0,97,0.00,,,0.01,Wunderground v.1.15,2013-02-24 10:05:00,
2013-02-24 05:10:00,40.5,39.7,29.79,NNW,342,1.0,1.0,97,0.00,,,0.01,Wunderground v.1.15,2013-02-24 10:10:00,
2013-02-24 05:20:00,40.5,39.7,29.79,NNW,328,2.0,2.0,97,0.00,,,0.01,Wunderground v.1.15,2013-02-24 10:20:00,
2013-02-24 05:30:00,40.4,39.6,29.79,NNW,333,2.0,2.0,97,0.00,,,0.01,Wunderground v.1.15,2013-02-24 10:30:00,
2013-02-24 05:35:00,40.4,39.6,29.79,NNW,332,3.0,3.0,97,0.00,,,0.01,Wunderground v.1.15,2013-02-24 10:35:00,
2013-02-24 05:40:00,40.3,39.5,29.80,NNW,335,3.0,3.0,97,0.00,,,0.01,Wunderground v.1.15,2013-02-24 10:40:00,
2013-02-24 05:45:00,40.4,39.6,29.80,NW,309,2.0,3.0,97,0.00,,,0.01,Wunderground v.1.15,2013-02-24 10:45:00,
2013-02-24 05:50:00,40.4,39.6,29.80,NNW,331,3.0,3.0,97,0.00,,,0.01,Wunderground v.1.15,2013-02-24 10:50:00,
2013-02-24 06:00:00,40.4,39.6,29.80,NNW,329,2.0,2.0,97,0.00,,,0.01,Wunderground v.1.15,2013-02-24 11:00:00,
2013-02-24 06:10:00,40.3,39.5,29.81,NW,313,2.0,2.0,97,0.00,,,0.01,Wunderground v.1.15,2013-02-24 11:10:00,
2013-02-24 06:15:00,40.3,39.5,29.81,WNW,292,3.0,3.0,97,0.00,,,0.01,Wunderground v.1.15,2013-02-24 11:15:00,
2013-02-24 06:20:00,40.3,39.5,29.81,WNW,303,2.0,2.0,97,0.00,,,0.01,Wunderground v.1.15,2013-02-24 11:20:00,
2013-02-24 06:25:00,40.3,39.5,29.82,North,11,1.0,2.0,97,0.00,,,0.01,Wunderground v.1.15,2013-02-24 11:25:00,
2013-02-24 06:30:00,40.3,39.5,29.82,NW,322,1.0,2.0,97,0.00,,,0.01,Wunderground v.1.15,2013-02-24 11:30:00,
2013-02-24 06:35:00,40.2,39.4,29.82,NW,323,0.0,2.0,97,0.00,,,0.01,Wunderground v.1.15,2013-02-24 11:35:00,
2013-02-24 06:40:00,40.2,39.4,29.82,NW,323,1.0,1.0,97,0.00,,,0.01,Wunderground v.1.15,2013-02-24 11:40:00,
2013-02-24 06:45:00,40.3,39.5,29.83,NW,322,1.0,1.0,97,0.00,,,0.01,Wunderground v.1.15,2013-02-24 11:45:00,
2013-02-24 06:50:00,40.3,39.5,29.83,NW,322,0.0,0.0,97,0.00,,,0.01,Wunderground v.1.15,2013-02-24 11:50:00,
2013-02-24 07:00:00,40.3,39.5,29.84,NW,323,0.0,0.0,97,0.00,,,0.01,Wunderground v.1.15,2013-02-24 12:00:00,
2013-02-24 07:05:00,40.3,39.5,29.84,NW,323,0.0,0.0,97,0.00,,,0.01,Wunderground v.1.15,2013-02-24 12:05:00,
2013-02-24 07:10:00,40.4,39.6,29.84,NW,322,0.0,0.0,97,0.00,,,0.01,Wunderground v.1.15,2013-02-24 12:10:00,
2013-02-24 07:15:00,40.4,39.6,29.84,NW,323,0.0,0.0,97,0.00,,,0.01,Wunderground v.1.15,2013-02-24 12:15:00,
2013-02-24 07:20:00,40.4,39.6,29.84,NW,323,0.0,0.0,97,0.00,,,0.01,Wunderground v.1.15,2013-02-24 12:20:00,
2013-02-24 07:25:00,40.4,39.6,29.84,NW,322,1.0,1.0,97,0.00,,,0.01,Wunderground v.1.15,2013-02-24 12:25:00,
2013-02-24 07:30:00,40.4,39.6,29.84,NW,323,1.0,1.0,97,0.00,,,0.01,Wunderground v.1.15,2013-02-24 12:30:00,
2013-02-24 07:40:00,40.6,39.8,29.84,NNW,338,1.0,1.0,97,0.00,,,0.01,Wunderground v.1.15,2013-02-24 12:40:00,
2013-02-24 07:50:00,40.6,39.8,29.84,NNW,338,2.0,2.0,97,0.00,,,0.01,Wunderground v.1.15,2013-02-24 12:50:00,
2013-02-24 07:55:00,40.6,39.8,29.85,NW,321,3.0,3.0,97,0.00,,,0.01,Wunderground v.1.15,2013-02-24 12:55:00,
2013-02-24 08:00:00,40.7,39.9,29.84,NW,325,3.0,3.0,97,0.00,,,0.01,Wunderground v.1.15,2013-02-24 13:00:00,
2013-02-24 08:05:00,40.8,40.0,29.84,NW,324,2.0,3.0,97,0.00,,,0.01,Wunderground v.1.15,2013-02-24 13:05:00,
2013-02-24 08:10:00,41.0,40.2,29.84,NNW,340,2.0,2.0,97,0.00,,,0.01,Wunderground v.1.15,2013-02-24 13:10:00,
2013-02-24 08:20:00,41.5,40.7,29.84,North,353,1.0,1.0,97,0.00,,,0.01,Wunderground v.1.15,2013-02-24 13:20:00,
2013-02-24 08:30:00,41.8,41.0,29.84,North,357,2.0,2.0,97,0.00,,,0.01,Wunderground v.1.15,2013-02-24 13:30:00,
2013-02-24 08:35:00,41.8,41.0,29.84,North,357,1.0,2.0,97,0.00,,,0.01,Wunderground v.1.15,2013-02-24 13:35:00,
2013-02-24 08:40:00,41.6,40.8,29.85,North,357,0.0,0.0,97,0.00,,,0.01,Wunderground v.1.15,2013-02-24 13:40:00,
2013-02-24 08:45:00,41.9,41.1,29.84,North,357,0.0,0.0,97,0.00,,,0.01,Wunderground v.1.15,2013-02-24 13:45:00,
2013-02-24 08:50:00,42.0,41.2,29.84,North,6,1.0,2.0,97,0.00,,,0.01,Wunderground v.1.15,2013-02-24 13:50:00,
2013-02-24 08:55:00,42.2,41.4,29.85,North,5,1.0,2.0,97,0.00,,,0.01,Wunderground v.1.15,2013-02-24 13:55:00,
2013-02-24 09:00:00,42.5,41.4,29.85,North,357,2.0,2.0,96,0.00,,,0.01,Wunderground v.1.15,2013-02-24 14:00:00,
2013-02-24 09:10:00,43.8,42.7,29.85,NNW,345,1.0,1.0,96,0.00,,,0.01,Wunderground v.1.15,2013-02-24 14:10:00,
2013-02-24 09:15:00,44.0,42.4,29.85,NNW,345,2.0,2.0,94,0.00,,,0.01,Wunderground v.1.15,2013-02-24 14:15:00,
2013-02-24 09:20:00,44.4,42.5,29.85,NNW,345,2.0,2.0,93,0.00,,,0.01,Wunderground v.1.15,2013-02-24 14:20:00,
2013-02-24 09:30:00,45.4,42.3,29.85,NW,324,2.0,2.0,89,0.00,,,0.01,Wunderground v.1.15,2013-02-24 14:30:00,
2013-02-24 09:35:00,45.9,42.5,29.86,NW,308,2.0,2.0,88,0.00,,,0.01,Wunderground v.1.15,2013-02-24 14:35:00,
2013-02-24 09:40:00,46.1,42.1,29.86,WNW,283,2.0,2.0,86,0.00,,,0.01,Wunderground v.1.15,2013-02-24 14:40:00,
2013-02-24 09:45:00,46.2,41.6,29.85,WNW,288,2.0,2.0,84,0.00,,,0.01,Wunderground v.1.15,2013-02-24 14:45:00,
2013-02-24 09:55:00,47.3,41.8,29.86,WNW,299,1.0,4.0,81,0.00,,,0.01,Wunderground v.1.15,2013-02-24 14:55:00,
2013-02-24 10:00:00,47.6,41.4,29.85,West,273,2.0,4.0,79,0.00,,,0.01,Wunderground v.1.15,2013-02-24 15:00:00,
2013-02-24 10:05:00,48.3,40.7,29.86,WNW,301,3.0,4.0,75,0.00,,,0.01,Wunderground v.1.15,2013-02-24 15:05:00,
2013-02-24 10:10:00,48.8,40.9,29.86,West,276,4.0,4.0,74,0.00,,,0.01,Wunderground v.1.15,2013-02-24 15:10:00,
2013-02-24 10:15:00,48.8,40.5,29.86,North,359,3.0,4.0,73,0.00,,,0.01,Wunderground v.1.15,2013-02-24 15:15:00,
2013-02-24 10:20:00,48.6,39.6,29.86,NW,310,3.0,3.0,71,0.00,,,0.01,Wunderground v.1.15,2013-02-24 15:20:00,
2013-02-24 10:25:00,48.5,39.9,29.87,North,9,2.0,3.0,72,0.00,,,0.01,Wunderground v.1.15,2013-02-24 15:25:00,
2013-02-24 10:30:00,48.2,39.2,29.86,WSW,238,3.0,3.0,71,0.00,,,0.01,Wunderground v.1.15,2013-02-24 15:30:00,
2013-02-24 10:35:00,48.3,39.7,29.87,NW,304,4.0,4.0,72,0.00,,,0.01,Wunderground v.1.15,2013-02-24 15:35:00,
2013-02-24 10:45:00,49.3,38.4,29.86,West,278,4.0,4.0,66,0.00,,,0.01,Wunderground v.1.15,2013-02-24 15:45:00,
2013-02-24 10:50:00,49.2,37.1,29.86,WNW,282,5.0,5.0,63,0.00,,,0.01,Wunderground v.1.15,2013-02-24 15:50:00,
2013-02-24 10:55:00,48.8,37.9,29.86,WNW,293,4.0,5.0,66,0.00,,,0.01,Wunderground v.1.15,2013-02-24 15:55:00,
2013-02-24 11:00:00,49.2,37.1,29.86,NW,320,4.0,7.0,63,0.00,,,0.01,Wunderground v.1.15,2013-02-24 16:00:00,
2013-02-24 11:10:00,49.3,36.8,29.86,West,266,5.0,5.0,62,0.00,,,0.01,Wunderground v.1.15,2013-02-24 16:10:00,
2013-02-24 11:15:00,49.6,36.7,29.86,West,276,5.0,5.0,61,0.00,,,0.01,Wunderground v.1.15,2013-02-24 16:15:00,
2013-02-24 11:20:00,49.6,35.8,29.86,West,265,4.0,6.0,59,0.00,,,0.01,Wunderground v.1.15,2013-02-24 16:20:00,
2013-02-24 11:25:00,49.7,35.5,29.86,NW,310,5.0,6.0,58,0.00,,,0.01,Wunderground v.1.15,2013-02-24 16:25:00,
2013-02-24 11:35:00,49.5,34.4,29.86,NW,319,7.0,8.0,56,0.00,,,0.01,Wunderground v.1.15,2013-02-24 16:35:00,
2013-02-24 11:45:00,49.3,34.7,29.86,NW,307,6.0,8.0,57,0.00,,,0.01,Wunderground v.1.15,2013-02-24 16:45:00,
2013-02-24 11:50:00,49.4,34.8,29.86,WNW,289,6.0,7.0,57,0.00,,,0.01,Wunderground v.1.15,2013-02-24 16:50:00,
2013-02-24 11:55:00,49.1,35.4,29.86,NNW,332,6.0,7.0,59,0.00,,,0.01,Wunderground v.1.15,2013-02-24 16:55:00,
2013-02-24 12:00:00,49.5,34.9,29.86,NNW,328,5.0,5.0,57,0.00,,,0.01,Wunderground v.1.15,2013-02-24 17:00:00,
2013-02-24 12:05:00,49.7,35.5,29.86,WNW,295,5.0,5.0,58,0.00,,,0.01,Wunderground v.1.15,2013-02-24 17:05:00,
2013-02-24 12:10:00,49.4,34.3,29.86,NW,323,5.0,8.0,56,0.00,,,0.01,Wunderground v.1.15,2013-02-24 17:10:00,
2013-02-24 12:15:00,49.0,35.3,29.86,NW,314,5.0,8.0,59,0.00,,,0.01,Wunderground v.1.15,2013-02-24 17:15:00,
2013-02-24 12:25:00,49.5,34.4,29.85,NW,307,5.0,5.0,56,0.00,,,0.01,Wunderground v.1.15,2013-02-24 17:25:00,
2013-02-24 12:30:00,49.2,34.2,29.85,NNW,343,5.0,6.0,56,0.00,,,0.01,Wunderground v.1.15,2013-02-24 17:30:00,
2013-02-24 12:35:00,49.4,34.3,29.85,WNW,298,6.0,6.0,56,0.00,,,0.01,Wunderground v.1.15,2013-02-24 17:35:00,
2013-02-24 12:40:00,49.9,34.8,29.85,North,355,5.0,6.0,56,0.00,,,0.01,Wunderground v.1.15,2013-02-24 17:40:00,
2013-02-24 12:45:00,49.5,33.5,29.85,NW,315,5.0,8.0,54,0.00,,,0.01,Wunderground v.1.15,2013-02-24 17:45:00,
2013-02-24 12:55:00,49.9,33.4,29.84,NNW,338,6.0,9.0,53,0.00,,,0.01,Wunderground v.1.15,2013-02-24 17:55:00,
2013-02-24 13:00:00,50.3,34.3,29.84,NNW,335,6.0,7.0,54,0.00,,,0.01,Wunderground v.1.15,2013-02-24 18:00:00,
2013-02-24 13:05:00,50.1,34.5,29.84,NW,315,5.0,7.0,55,0.00,,,0.01,Wunderground v.1.15,2013-02-24 18:05:00,
2013-02-24 13:15:00,49.6,33.6,29.84,NNW,332,5.0,6.0,54,0.00,,,0.01,Wunderground v.1.15,2013-02-24 18:15:00,
2013-02-24 13:20:00,49.6,32.7,29.84,West,265,6.0,6.0,52,0.00,,,0.01,Wunderground v.1.15,2013-02-24 18:20:00,
2013-02-24 13:25:00,50.0,34.5,29.84,NW,313,5.0,6.0,55,0.00,,,0.01,Wunderground v.1.15,2013-02-24 18:25:00,
2013-02-24 13:30:00,50.1,33.6,29.84,NNW,328,5.0,5.0,53,0.00,,,0.01,Wunderground v.1.15,2013-02-24 18:30:00,
2013-02-24 13:35:00,50.1,32.7,29.84,NW,326,6.0,13.0,51,0.00,,,0.01,Wunderground v.1.15,2013-02-24 18:35:00,
2013-02-24 13:40:00,50.2,33.2,29.84,NW,319,6.0,7.0,52,0.00,,,0.01,Wunderground v.1.15,2013-02-24 18:40:00,
2013-02-24 13:45:00,50.0,33.1,29.84,WNW,282,6.0,7.0,52,0.00,,,0.01,Wunderground v.1.15,2013-02-24 18:45:00,
2013-02-24 13:55:00,50.4,32.4,29.84,WNW,283,6.0,7.0,50,0.00,,,0.01,Wunderground v.1.15,2013-02-24 18:55:00,
2013-02-24 14:05:00,50.5,32.5,29.84,North,349,6.0,6.0,50,0.00,,,0.01,Wunderground v.1.15,2013-02-24 19:05:00,
2013-02-24 14:10:00,51.0,32.5,29.84,NW,305,5.0,5.0,49,0.00,,,0.01,Wunderground v.1.15,2013-02-24 19:10:00,
2013-02-24 14:15:00,51.3,32.3,29.83,NW,313,5.0,5.0,48,0.00,,,0.01,Wunderground v.1.15,2013-02-24 19:15:00,
2013-02-24 14:20:00,51.4,32.3,29.83,SW,236,5.0,5.0,48,0.00,,,0.01,Wunderground v.1.15,2013-02-24 19:20:00,
2013-02-24 14:25:00,51.6,32.0,29.83,North,360,4.0,7.0,47,0.00,,,0.01,Wunderground v.1.15,2013-02-24 19:25:00,
2013-02-24 14:30:00,51.5,31.9,29.83,NW,317,5.0,6.0,47,0.00,,,0.01,Wunderground v.1.15,2013-02-24 19:30:00,
2013-02-24 14:35:00,51.5,31.4,29.83,NNW,332,6.0,6.0,46,0.00,,,0.01,Wunderground v.1.15,2013-02-24 19:35:00,
2013-02-24 14:40:00,51.5,31.9,29.83,WNW,299,6.0,6.0,47,0.00,,,0.01,Wunderground v.1.15,2013-02-24 19:40:00,
2013-02-24 14:50:00,51.5,31.4,29.83,NW,326,5.0,9.0,46,0.00,,,0.01,Wunderground v.1.15,2013-02-24 19:50:00,
2013-02-24 14:55:00,51.4,30.2,29.83,NNW,327,6.0,9.0,44,0.00,,,0.01,Wunderground v.1.15,2013-02-24 19:55:00,
2013-02-24 15:00:00,51.6,30.9,29.83,NNW,335,6.0,6.0,45,0.00,,,0.01,Wunderground v.1.15,2013-02-24 20:00:00,
2013-02-24 15:05:00,51.9,30.6,29.83,NW,311,5.0,9.0,44,0.00,,,0.01,Wunderground v.1.15,2013-02-24 20:05:00,
2013-02-24 15:10:00,51.9,29.5,29.84,NW,318,5.0,6.0,42,0.00,,,0.01,Wunderground v.1.15,2013-02-24 20:10:00,
2013-02-24 15:15:00,51.8,29.4,29.84,NW,319,7.0,7.0,42,0.00,,,0.01,Wunderground v.1.15,2013-02-24 20:15:00,
2013-02-24 15:20:00,51.6,30.4,29.84,North,355,7.0,7.0,44,0.00,,,0.01,Wunderground v.1.15,2013-02-24 20:20:00,
2013-02-24 15:25:00,51.4,29.6,29.84,NNW,347,6.0,7.0,43,0.00,,,0.01,Wunderground v.1.15,2013-02-24 20:25:00,
2013-02-24 15:30:00,51.2,28.9,29.84,NW,314,6.0,8.0,42,0.00,,,0.01,Wunderground v.1.15,2013-02-24 20:30:00,
2013-02-24 15:40:00,51.0,28.7,29.85,NW,306,7.0,7.0,42,0.00,,,0.01,Wunderground v.1.15,2013-02-24 20:40:00,
2013-02-24 15:50:00,50.8,29.6,29.85,West,277,7.0,7.0,44,0.00,,,0.01,Wunderground v.1.15,2013-02-24 20:50:00,
2013-02-24 15:55:00,50.7,29.0,29.85,NW,319,6.0,7.0,43,0.00,,,0.01,Wunderground v.1.15,2013-02-24 20:55:00,
2013-02-24 16:00:00,50.7,30.1,29.85,NNW,327,6.0,6.0,45,0.00,,,0.01,Wunderground v.1.15,2013-02-24 21:00:00,
2013-02-24 16:05:00,50.7,30.7,29.86,WNW,284,5.0,6.0,46,0.00,,,0.01,Wunderground v.1.15,2013-02-24 21:05:00,
2013-02-24 16:10:00,50.5,30.5,29.86,NNW,348,4.0,9.0,46,0.00,,,0.01,Wunderground v.1.15,2013-02-24 21:10:00,
2013-02-24 16:20:00,49.9,30.5,29.86,NW,324,6.0,11.0,47,0.00,,,0.01,Wunderground v.1.15,2013-02-24 21:20:00,
2013-02-24 16:30:00,49.6,30.2,29.87,North,359,6.0,10.0,47,0.00,,,0.01,Wunderground v.1.15,2013-02-24 21:30:00,
2013-02-24 16:35:00,49.5,29.6,29.87,NW,310,6.0,10.0,46,0.00,,,0.01,Wunderground v.1.15,2013-02-24 21:35:00,
2013-02-24 16:40:00,49.2,29.3,29.87,NNW,328,6.0,6.0,46,0.00,,,0.01,Wunderground v.1.15,2013-02-24 21:40:00,
2013-02-24 16:45:00,49.0,29.6,29.88,NNW,329,6.0,6.0,47,0.00,,,0.01,Wunderground v.1.15,2013-02-24 21:45:00,
2013-02-24 16:55:00,48.2,29.9,29.88,NNW,328,7.0,7.0,49,0.00,,,0.01,Wunderground v.1.15,2013-02-24 21:55:00,
2013-02-24 17:00:00,47.7,30.0,29.89,NNW,344,7.0,7.0,50,0.00,,,0.01,Wunderground v.1.15,2013-02-24 22:00:00,
2013-02-24 17:05:00,47.4,29.7,29.89,NNW,344,7.0,7.0,50,0.00,,,0.01,Wunderground v.1.15,2013-02-24 22:05:00,
2013-02-24 17:10:00,47.0,30.7,29.90,North,8,7.0,13.0,53,0.00,,,0.01,Wunderground v.1.15,2013-02-24 22:10:00,
2013-02-24 17:20:00,45.7,30.0,29.91,NW,305,8.0,8.0,54,0.00,,,0.01,Wunderground v.1.15,2013-02-24 22:20:00,
2013-02-24 17:30:00,44.8,29.2,29.92,NNW,345,7.0,10.0,54,0.00,,,0.01,Wunderground v.1.15,2013-02-24 22:30:00,
2013-02-24 17:35:00,44.4,28.8,29.92,NNW,328,8.0,10.0,54,0.00,,,0.01,Wunderground v.1.15,2013-02-24 22:35:00,
2013-02-24 17:40:00,44.0,29.3,29.92,North,1,8.0,8.0,56,0.00,,,0.01,Wunderground v.1.15,2013-02-24 22:40:00,
2013-02-24 17:45:00,43.8,29.1,29.93,WNW,303,6.0,8.0,56,0.00,,,0.01,Wunderground v.1.15,2013-02-24 22:45:00,
2013-02-24 17:50:00,43.5,29.3,29.93,NW,321,7.0,7.0,57,0.00,,,0.01,Wunderground v.1.15,2013-02-24 22:50:00,
2013-02-24 18:00:00,43.0,29.2,29.93,NNW,338,5.0,5.0,58,0.00,,,0.01,Wunderground v.1.15,2013-02-24 23:00:00,
2013-02-24 18:05:00,42.7,29.4,29.94,NW,322,5.0,13.0,59,0.00,,,0.01,Wunderground v.1.15,2013-02-24 23:05:00,
2013-02-24 18:15:00,41.9,28.2,29.95,NW,317,8.0,8.0,58,0.00,,,0.01,Wunderground v.1.15,2013-02-24 23:15:00,
2013-02-24 18:20:00,41.6,27.5,29.95,WNW,299,9.0,9.0,57,0.00,,,0.01,Wunderground v.1.15,2013-02-24 23:20:00,
2013-02-24 18:25:00,41.3,27.2,29.96,NW,317,9.0,9.0,57,0.00,,,0.01,Wunderground v.1.15,2013-02-24 23:25:00,
2013-02-24 18:35:00,40.8,27.2,29.97,West,274,10.0,11.0,58,0.00,,,0.01,Wunderground v.1.15,2013-02-24 23:35:00,
2013-02-24 18:40:00,40.6,27.0,29.98,WNW,286,9.0,9.0,58,0.00,,,0.01,Wunderground v.1.15,2013-02-24 23:40:00,
2013-02-24 18:45:00,40.5,26.9,29.98,WNW,289,7.0,9.0,58,0.00,,,0.01,Wunderground v.1.15,2013-02-24 23:45:00,
2013-02-24 18:50:00,40.4,27.2,29.98,NW,315,6.0,14.0,59,0.00,,,0.01,Wunderground v.1.15,2013-02-24 23:50:00,
2013-02-24 18:55:00,40.1,26.9,29.99,NNW,338,6.0,14.0,59,0.00,,,0.01,Wunderground v.1.15,2013-02-24 23:55:00,
2013-02-24 19:00:00,39.8,27.0,29.99,West,272,7.0,7.0,60,0.00,,,0.01,Wunderground v.1.15,2013-02-25 00:00:00,
2013-02-24 19:05:00,39.6,26.8,29.99,NNW,330,7.0,11.0,60,0.00,,,0.01,Wunderground v.1.15,2013-02-25 00:05:00,
2013-02-24 19:15:00,39.2,26.5,30.00,NW,318,8.0,8.0,60,0.00,,,0.01,Wunderground v.1.15,2013-02-25 00:15:00,
2013-02-24 19:20:00,39.1,26.8,30.00,WNW,299,6.0,6.0,61,0.00,,,0.01,Wunderground v.1.15,2013-02-25 00:20:00,
2013-02-24 19:25:00,38.9,26.2,30.01,NNW,331,6.0,9.0,60,0.00,,,0.01,Wunderground v.1.15,2013-02-25 00:25:00,
2013-02-24 19:30:00,38.7,26.0,30.01,NW,324,7.0,14.0,60,0.00,,,0.01,Wunderground v.1.15,2013-02-25 00:30:00,
2013-02-24 19:35:00,38.6,25.9,30.01,NNW,336,7.0,14.0,60,0.00,,,0.01,Wunderground v.1.15,2013-02-25 00:35:00,
2013-02-24 19:45:00,38.4,24.5,30.03,NW,309,7.0,7.0,57,0.00,,,0.01,Wunderground v.1.15,2013-02-25 00:45:00,
2013-02-24 19:50:00,38.3,24.4,30.03,NNW,336,7.0,9.0,57,0.00,,,0.01,Wunderground v.1.15,2013-02-25 00:50:00,
2013-02-24 19:55:00,38.2,23.9,30.03,NNW,336,7.0,9.0,56,0.00,,,0.01,Wunderground v.1.15,2013-02-25 00:55:00,
2013-02-24 20:05:00,38.0,24.5,30.03,NNW,334,7.0,10.0,58,0.00,,,0.01,Wunderground v.1.15,2013-02-25 01:05:00,
2013-02-24 20:10:00,37.9,23.6,30.03,North,353,8.0,9.0,56,0.00,,,0.01,Wunderground v.1.15,2013-02-25 01:10:00,
2013-02-24 20:20:00,37.7,24.6,30.03,North,359,8.0,11.0,59,0.00,,,0.01,Wunderground v.1.15,2013-02-25 01:20:00,
2013-02-24 20:25:00,37.5,24.1,30.03,North,356,9.0,14.0,58,0.00,,,0.01,Wunderground v.1.15,2013-02-25 01:25:00,
2013-02-24 20:30:00,37.4,24.8,30.04,North,5,8.0,8.0,60,0.00,,,0.01,Wunderground v.1.15,2013-02-25 01:30:00,
2013-02-24 20:35:00,37.3,24.7,30.04,North,3,7.0,8.0,60,0.00,,,0.01,Wunderground v.1.15,2013-02-25 01:35:00,
2013-02-24 20:40:00,37.2,25.0,30.05,NW,321,6.0,6.0,61,0.00,,,0.01,Wunderground v.1.15,2013-02-25 01:40:00,
2013-02-24 20:50:00,37.0,24.8,30.05,NNW,332,6.0,9.0,61,0.00,,,0.01,Wunderground v.1.15,2013-02-25 01:50:00,
2013-02-24 21:00:00,36.8,24.2,30.06,NW,326,5.0,5.0,60,0.00,,,0.01,Wunderground v.1.15,2013-02-25 02:00:00,
2013-02-24 21:05:00,36.7,24.1,30.06,NW,315,6.0,7.0,60,0.00,,,0.01,Wunderground v.1.15,2013-02-25 02:05:00,
2013-02-24 21:10:00,36.6,24.0,30.07,NW,324,7.0,8.0,60,0.00,,,0.00,Wunderground v.1.15,2013-02-25 02:10:00,
2013-02-24 21:15:00,36.5,23.9,30.06,NNW,328,6.0,8.0,60,0.00,,,0.00,Wunderground v.1.15,2013-02-25 02:15:00,
2013-02-24 21:25:00,36.4,23.8,30.07,NW,319,6.0,12.0,60,0.00,,,0.00,Wunderground v.1.15,2013-02-25 02:25:00,
2013-02-24 21:30:00,36.3,23.7,30.07,NNW,332,6.0,6.0,60,0.00,,,0.00,Wunderground v.1.15,2013-02-25 02:30:00,
2013-02-24 21:35:00,36.2,23.6,30.07,NW,315,6.0,6.0,60,0.00,,,0.00,Wunderground v.1.15,2013-02-25 02:35:00,
2013-02-24 21:40:00,36.1,23.5,30.07,NW,307,7.0,7.0,60,0.00,,,0.00,Wunderground v.1.15,2013-02-25 02:40:00,
2013-02-24 21:50:00,36.0,23.8,30.08,NW,308,5.0,5.0,61,0.00,,,0.00,Wunderground v.1.15,2013-02-25 02:50:00,
2013-02-24 22:00:00,35.7,23.2,30.08,NW,306,4.0,4.0,60,0.00,,,0.00,Wunderground v.1.15,2013-02-25 03:00:00,
2013-02-24 22:05:00,35.6,23.1,30.08,NW,305,5.0,5.0,60,0.00,,,0.00,Wunderground v.1.15,2013-02-25 03:05:00,
2013-02-24 22:10:00,35.6,23.5,30.08,West,266,6.0,6.0,61,0.00,,,0.00,Wunderground v.1.15,2013-02-25 03:10:00,
2013-02-24 22:15:00,35.5,23.4,30.08,NW,311,5.0,6.0,61,0.00,,,0.00,Wunderground v.1.15,2013-02-25 03:15:00,
2013-02-24 22:20:00,35.5,23.4,30.08,NW,317,5.0,8.0,61,0.00,,,0.00,Wunderground v.1.15,2013-02-25 03:20:00,
2013-02-24 22:25:00,35.4,23.3,30.08,NW,305,6.0,8.0,61,0.00,,,0.00,Wunderground v.1.15,2013-02-25 03:25:00,
2013-02-24 22:35:00,35.2,23.1,30.08,NW,321,4.0,5.0,61,0.00,,,0.00,Wunderground v.1.15,2013-02-25 03:35:00,
2013-02-24 22:40:00,35.2,23.1,30.08,NNW,335,4.0,5.0,61,0.00,,,0.00,Wunderground v.1.15,2013-02-25 03:40:00,
2013-02-24 22:50:00,34.9,23.2,30.08,NW,315,4.0,4.0,62,0.00,,,0.00,Wunderground v.1.15,2013-02-25 03:50:00,
2013-02-24 22:55:00,34.8,23.1,30.08,NW,313,4.0,5.0,62,0.00,,,0.00,Wunderground v.1.15,2013-02-25 03:55:00,
2013-02-24 23:00:00,34.8,23.1,30.08,NW,305,4.0,4.0,62,0.00,,,0.00,Wunderground v.1.15,2013-02-25 04:00:00,
2013-02-24 23:05:00,34.7,23.4,30.08,NW,305,4.0,4.0,63,0.00,,,0.00,Wunderground v.1.15,2013-02-25 04:05:00,
2013-02-24 23:10:00,34.7,23.0,30.08,NW,308,5.0,5.0,62,0.00,,,0.00,Wunderground v.1.15,2013-02-25 04:10:00,
2013-02-24 23:15:00,34.6,23.3,30.08,NW,326,4.0,7.0,63,0.00,,,0.00,Wunderground v.1.15,2013-02-25 04:15:00,
2013-02-24 23:20:00,34.6,23.3,30.08,NW,319,4.0,5.0,63,0.00,,,0.00,Wunderground v.1.15,2013-02-25 04:20:00,
2013-02-24 23:25:00,34.5,23.2,30.09,West,277,4.0,5.0,63,0.00,,,0.00,Wunderground v.1.15,2013-02-25 04:25:00,
2013-02-24 23:35:00,34.4,23.1,30.08,NNW,338,5.0,6.0,63,0.00,,,0.00,Wunderground v.1.15,2013-02-25 04:35:00,
2013-02-24 23:45:00,34.3,23.4,30.09,NW,309,4.0,6.0,64,0.00,,,0.00,Wunderground v.1.15,2013-02-25 04:45:00,
2013-02-24 23:50:00,34.2,23.3,30.09,NW,315,4.0,4.0,64,0.00,,,0.00,Wunderground v.1.15,2013-02-25 04:50:00,
2013-02-24 23:55:00,34.2,22.9,30.09,NW,307,5.0,5.0,63,0.00,,,0.00,Wunderground v.1.15,2013-02-25 04:55:00,